Location: *
(33.8649°S, 62.1526°E)
Time: 13:00:27
(UTC+00:00)

Cosmos 1892 - Pass Details

Date: 17 January 2021
Orbit: 504 x 522 km, 82.5° (Epoch: 02 March)

Event Time Altitude Azimuth Distance (km) Brightness Sun altitude
Rises 16:00:11 0° 193° (SSW) 2,667 7.1 -10.9°
Reaches altitude 10° 16:02:24 10° 199° (SSW) 1,767 6.3 -11.2°
Maximum altitude 16:06:08 48° 273° (W) 680 3.7 -11.9°
Drops below altitude 10° 16:09:48 10° 348° (NNW) 1,730 5.1 -12.5°
Enters shadow 16:11:40 - 353° (N) 2,488 5.9 -12.8°
